[[{"header":{"parameterUnit":"m.s-1","parameterCategory":2,"la1":30.2992,"la2":30.254,"lo1":-89.0895,"lo2":-89.0443,"dy":0.0025,"dx":0.0025,"nx":19,"ny":19,"refTime":"2026-05-19T03:00:00:Z","depth":"0","parameterNumber":2,"parameterNumberName":"U-component_of_CURRENTS"},"data":[0,0,0,-0.2357,-0.2362,-0.2595,-0.2596,-0.278,-0.2781,0,0,0,0,0,0,0,0,0,0,0,-0.2248,-0.2249,-0.2357,-0.2363,-0.2595,-0.2596,-0.278,-0.2781,0,0,0,0,0,0,0,0,0,0,0,-0.2248,-0.2249,-0.225,-0.2363,-0.2595,-0.2596,-0.278,-0.2633,0,0,0,0,0,0,0,0,0,0,-0.2421,-0.2317,-0.2249,-0.225,-0.2365,-0.2595,-0.2596,-0.2627,-0.2642,-0.2642,0,-0.2663,0,-0.2736,-0.2791,-0.2792,0,0,0,-0.2364,-0.2304,-0.2391,-0.225,-0.2367,-0.2594,-0.2491,-0.2636,-0.2653,-0.2661,-0.2666,-0.2675,-0.2739,-0.2792,-0.2793,-0.3045,-0.3047,0,0,-0.2351,-0.2273,-0.2379,-0.2401,-0.2406,-0.2483,-0.2498,-0.2647,-0.2638,-0.2667,-0.2681,-0.2742,-0.2793,-0.2794,-0.3043,-0.3045,0,0,0,-0.2313,-0.2263,-0.2348,-0.2391,-0.2449,-0.249,-0.2507,-0.2632,-0.2666,-0.2683,-0.2745,-0.2794,-0.2795,-0.3042,-0.3044,-0.3106,0,0,0,-0.2306,-0.2243,-0.2341,-0.2295,-0.2446,-0.2556,-0.2486,-0.2655,-0.2676,-0.2744,-0.2794,-0.2797,-0.304,-0.3043,-0.3101,-0.3083,0,0,0,-0.2241,-0.2236,-0.2262,-0.229,-0.2398,-0.2556,-0.2599,-0.2662,-0.2713,-0.2792,-0.2797,-0.3038,-0.3042,-0.3096,-0.3077,-0.3027,0,0,0,-0.2157,-0.2212,-0.2258,-0.2367,-0.2395,-0.2638,-0.2599,-0.2751,-0.2828,-0.2794,-0.304,-0.3044,-0.3094,-0.3073,-0.3024,-0.2589,-0.2565,0,0,-0.2194,-0.2213,-0.2296,-0.2347,-0.2593,-0.2607,-0.2837,-0.2893,-0.2887,-0.2978,-0.2985,-0.3103,-0.3076,-0.3026,-0.2823,-0.279,0,0,0,-0.2293,-0.2347,-0.2432,-0.2582,-0.2748,-0.2885,-0.2981,-0.2991,-0.3071,-0.2952,-0.3168,-0.3149,-0.3114,-0.285,-0.2828,-0.2745,-0.3063,-0.3062,-0.3062,-0.222,-0.2389,-0.2549,-0.2766,-0.2913,-0.3097,-0.3163,-0.3198,-0.3205,-0.3242,-0.325,-0.3321,-0.3049,-0.3024,-0.2952,-0.3332,-0.3333,-0.3333,-0.3333,-0.2287,-0.2369,-0.2611,-0.2813,-0.3007,-0.3178,-0.333,-0.3331,-0.337,-0.3368,-0.3331,-0.2993,-0.3,-0.2932,-0.3338,-0.3337,-0.3337,-0.3336,-0.3336,-0.2193,-0.225,-0.2415,-0.2687,-0.2928,-0.3162,-0.3253,-0.3377,-0.3381,-0.3394,-0.3042,-0.3034,-0.2917,-0.337,-0.337,-0.337,-0.337,-0.3369,-0.3369,-0.1961,-0.2149,-0.2225,-0.2545,-0.2686,-0.2916,-0.3182,-0.3181,-0.3096,-0.3045,-0.304,-0.292,-0.333,-0.3263,-0.3366,-0.3367,-0.3367,-0.3367,-0.3368,-0.1782,-0.1828,-0.1934,-0.2056,-0.2376,-0.2386,-0.2765,-0.2633,-0.2681,-0.2489,-0.2474,-0.2823,-0.2727,-0.2741,-0.266,-0.2601,-0.2601,-0.2601,-0.2601,-0.1559,-0.1625,-0.164,-0.1732,-0.1904,-0.2115,-0.1823,-0.1877,-0.1943,-0.1937,-0.213,-0.2048,-0.2082,-0.1952,-0.1984,-0.189,-0.1638,-0.1638,-0.1637,-0.1385,-0.1441,-0.1343,-0.1475,-0.1657,-0.1671,-0.1217,-0.1034,-0.1323,-0.1615,-0.2123,-0.2163,-0.2077,-0.2137,-0.1961,-0.2011,-0.1868,0,0]},{"header":{"parameterUnit":"m.s-1","parameterCategory":2,"la1":30.2992,"la2":30.254,"lo1":-89.0895,"lo2":-89.0443,"dy":0.0025,"dx":0.0025,"nx":19,"ny":19,"refTime":"2026-05-19T03:00:00:Z","depth":"0","parameterNumber":3,"parameterNumberName":"V-component_of_CURRENTS"},"data":[0,0,0,0.016,0.0161,0.0255,0.0256,0.039,0.0391,0,0,0,0,0,0,0,0,0,0,0,0.0124,0.0124,0.016,0.0161,0.0255,0.0256,0.039,0.0391,0,0,0,0,0,0,0,0,0,0,0,0.0124,0.0124,0.0124,0.0161,0.0255,0.0256,0.039,0.032,0,0,0,0,0,0,0,0,0,0,0.023,0.0175,0.0124,0.0124,0.0162,0.0255,0.0256,0.0317,0.0325,0.0344,0,0.0341,0,0.0361,0.0398,0.0399,0,0,0,0.0184,0.0168,0.0201,0.0124,0.0162,0.0255,0.0219,0.0322,0.033,0.0354,0.0343,0.0348,0.0363,0.0399,0.0399,0.0335,0.0333,0,0,0.0178,0.0141,0.0195,0.0206,0.0164,0.0216,0.0222,0.0327,0.0322,0.0344,0.0352,0.0365,0.04,0.04,0.0336,0.0334,0,0,0,0.0148,0.0137,0.0167,0.02,0.0212,0.0218,0.0225,0.0317,0.0329,0.0353,0.0367,0.04,0.0402,0.0338,0.0335,0.0144,0,0,0,0.0146,0.0118,0.0164,0.0143,0.0209,0.026,0.0212,0.0322,0.0334,0.0366,0.04,0.0403,0.034,0.0337,0.0152,0.0067,0,0,0,0.0123,0.0116,0.0121,0.0141,0.0173,0.0259,0.0278,0.0325,0.0342,0.0399,0.0403,0.0341,0.0337,0.016,0.008,0.0184,0,0,0,0.0092,0.0025,0.012,0.0036,0.0172,0.0134,0.0277,0.0284,0.0316,0.0401,0.0339,0.0336,0.0163,0.0089,0.0189,0.0458,0.0457,0,0,-0.0023,0.001,-0.0046,0.004,-0.0058,0.0124,0.0035,0.0162,0.0269,0.0315,0.0314,0.015,0.0081,0.0185,0.0249,0.0255,0,0,0,-0.0104,-0.0147,-0.0162,-0.019,-0.0158,-0.0134,-0.0004,0.0044,0.0097,0.0269,0.013,0.0093,0.0166,0.0337,0.0339,0.0547,0.0319,0.0319,0.032,-0.0282,-0.0286,-0.04,-0.0399,-0.0408,-0.031,-0.0279,-0.0184,-0.0063,-0.0083,-0.0079,-0.016,0.0011,0.0019,0.0223,-0.0094,-0.0094,-0.0095,-0.0095,-0.0488,-0.0554,-0.0572,-0.0676,-0.0631,-0.0658,-0.0552,-0.045,-0.0356,-0.0297,-0.0212,0.0102,0.0012,0.0229,-0.0108,-0.0106,-0.0104,-0.0103,-0.0102,-0.0597,-0.063,-0.0695,-0.0833,-0.09,-0.084,-0.0782,-0.0706,-0.0523,-0.0491,-0.0101,-0.0093,0.0131,-0.0376,-0.0376,-0.0376,-0.0376,-0.0376,-0.0376,-0.0651,-0.0727,-0.0854,-0.0983,-0.1061,-0.1084,-0.0907,-0.0726,-0.0421,-0.0277,-0.0271,0.0124,-0.0241,-0.0193,-0.0376,-0.0376,-0.0376,-0.0376,-0.0376,-0.0742,-0.0762,-0.097,-0.1078,-0.1237,-0.1184,-0.095,-0.0363,-0.0174,0.0069,0.0297,-0.0084,0.0051,0.0053,0.0111,0.0018,0.0018,0.0018,0.0018,-0.0762,-0.0802,-0.1034,-0.1212,-0.1333,-0.1233,-0.0582,0.0063,0.0537,0.0668,0.0565,0.0662,0.0637,0.0809,0.0794,0.0869,0.097,0.0971,0.0972,-0.0792,-0.0878,-0.1015,-0.1208,-0.1373,-0.1164,-0.0426,0.0527,0.1004,0.1018,0.0786,0.0745,0.0886,0.0831,0.1103,0.1066,0.1189,0,0]}],[{"header":{"parameterUnit":"m.s-1","parameterCategory":2,"la1":30.2992,"la2":30.254,"lo1":-89.0895,"lo2":-89.0443,"dy":0.0025,"dx":0.0025,"nx":19,"ny":19,"refTime":"2026-05-19T03:00:00:Z","depth":"2","parameterNumber":2,"parameterNumberName":"U-component_of_CURRENTS"},"data":[0,0,0,-0.2407,-0.2409,-0.2468,-0.2468,-0.2373,-0.2372,0,0,0,0,0,0,0,0,0,0,0,-0.2374,-0.2375,-0.2407,-0.2409,-0.2468,-0.2468,-0.2373,-0.2372,0,0,0,0,0,0,0,0,0,0,0,-0.2374,-0.2375,-0.2375,-0.2409,-0.2468,-0.2468,-0.2374,-0.2366,0,0,0,0,0,0,0,0,0,0,-0.2327,-0.2323,-0.2374,-0.2375,-0.241,-0.2468,-0.2468,-0.2367,-0.2366,-0.2305,0,-0.2328,0,-0.236,-0.2364,-0.2364,0,0,0,-0.2385,-0.2324,-0.2353,-0.2376,-0.2411,-0.2468,-0.2435,-0.2368,-0.2366,-0.2303,-0.2328,-0.2326,-0.2358,-0.2363,-0.2363,-0.2345,-0.2346,0,0,-0.2382,-0.2364,-0.2355,-0.2353,-0.2441,-0.2433,-0.2437,-0.2369,-0.2361,-0.2327,-0.2324,-0.2357,-0.2362,-0.2362,-0.2345,-0.2346,0,0,0,-0.2389,-0.2361,-0.2395,-0.2355,-0.2387,-0.2435,-0.244,-0.2364,-0.238,-0.2324,-0.2356,-0.2362,-0.236,-0.2344,-0.2345,-0.2446,0,0,0,-0.2385,-0.2368,-0.2394,-0.238,-0.239,-0.2399,-0.2436,-0.2384,-0.2379,-0.2356,-0.2362,-0.2359,-0.2343,-0.2345,-0.2441,-0.25,0,0,0,-0.2369,-0.2366,-0.2381,-0.238,-0.242,-0.2402,-0.2413,-0.2384,-0.2398,-0.2363,-0.2359,-0.2343,-0.2344,-0.2437,-0.2493,-0.2442,0,0,0,-0.2335,-0.238,-0.238,-0.2423,-0.242,-0.244,-0.2415,-0.242,-0.2397,-0.2361,-0.2343,-0.2345,-0.2436,-0.2488,-0.2439,-0.2099,-0.2084,0,0,-0.2378,-0.2384,-0.2409,-0.2413,-0.2445,-0.2429,-0.2419,-0.2388,-0.2401,-0.2347,-0.2348,-0.2443,-0.2492,-0.2441,-0.2198,-0.2179,0,0,0,-0.2414,-0.2436,-0.2444,-0.2461,-0.2461,-0.2453,-0.2401,-0.2458,-0.251,-0.2403,-0.2449,-0.2478,-0.2441,-0.2231,-0.2218,-0.2353,-0.2353,-0.2353,-0.2352,-0.2408,-0.243,-0.2455,-0.2463,-0.2464,-0.2449,-0.2486,-0.254,-0.2496,-0.2597,-0.2564,-0.2606,-0.2386,-0.2371,-0.256,-0.256,-0.256,-0.2561,-0.2561,-0.2449,-0.2448,-0.2465,-0.2516,-0.2492,-0.2497,-0.2581,-0.2622,-0.2686,-0.2713,-0.2669,-0.2355,-0.2361,-0.2569,-0.2568,-0.2566,-0.2566,-0.2565,-0.2565,-0.2405,-0.2411,-0.2462,-0.2517,-0.2574,-0.2593,-0.2645,-0.2736,-0.2807,-0.28,-0.2454,-0.2447,-0.2626,-0.273,-0.273,-0.273,-0.273,-0.273,-0.273,-0.2329,-0.2377,-0.2428,-0.2544,-0.2582,-0.2671,-0.2739,-0.2711,-0.2593,-0.2538,-0.2533,-0.2661,-0.2655,-0.2634,-0.2731,-0.2731,-0.2731,-0.2731,-0.273,-0.2256,-0.2318,-0.2371,-0.2421,-0.2518,-0.2439,-0.2563,-0.2309,-0.2312,-0.2154,-0.2341,-0.235,-0.2263,-0.2268,-0.2236,-0.2225,-0.2225,-0.2224,-0.2224,-0.2182,-0.2236,-0.2235,-0.2247,-0.2279,-0.2282,-0.196,-0.1859,-0.187,-0.1874,-0.1891,-0.1796,-0.1821,-0.1707,-0.1725,-0.1681,-0.1526,-0.1525,-0.1525,-0.2112,-0.2138,-0.2064,-0.2103,-0.2109,-0.1987,-0.1559,-0.1306,-0.1285,-0.1513,-0.1935,-0.2145,-0.2043,-0.2068,-0.1922,-0.1941,-0.188,0,0]},{"header":{"parameterUnit":"m.s-1","parameterCategory":2,"la1":30.2992,"la2":30.254,"lo1":-89.0895,"lo2":-89.0443,"dy":0.0025,"dx":0.0025,"nx":19,"ny":19,"refTime":"2026-05-19T03:00:00:Z","depth":"2","parameterNumber":3,"parameterNumberName":"V-component_of_CURRENTS"},"data":[0,0,0,-0.0578,-0.0574,-0.0391,-0.039,-0.0124,-0.0122,0,0,0,0,0,0,0,0,0,0,0,-0.0664,-0.0664,-0.0578,-0.0574,-0.0391,-0.039,-0.0125,-0.0122,0,0,0,0,0,0,0,0,0,0,0,-0.0664,-0.0664,-0.0663,-0.0573,-0.0391,-0.0389,-0.0125,-0.0267,0,0,0,0,0,0,0,0,0,0,-0.0447,-0.0547,-0.0664,-0.0663,-0.0572,-0.0391,-0.0389,-0.0274,-0.0258,-0.0204,0,-0.0205,0,-0.0154,-0.0105,-0.0104,0,0,0,-0.0555,-0.0561,-0.0501,-0.0663,-0.0571,-0.0391,-0.0468,-0.0265,-0.0247,-0.0184,-0.0201,-0.019,-0.0149,-0.0104,-0.0102,0.0136,0.0137,0,0,-0.0565,-0.0627,-0.0514,-0.0492,-0.0559,-0.0474,-0.0463,-0.0254,-0.0256,-0.02,-0.0183,-0.0145,-0.0102,-0.01,0.0135,0.0136,0,0,0,-0.0607,-0.0635,-0.0581,-0.0503,-0.047,-0.0469,-0.0456,-0.0265,-0.0246,-0.018,-0.0142,-0.01,-0.0097,0.0134,0.0136,0.0039,0,0,0,-0.0612,-0.066,-0.0587,-0.0621,-0.0476,-0.0371,-0.0472,-0.0261,-0.0235,-0.0143,-0.01,-0.0095,0.0134,0.0135,0.004,-0.0054,0,0,0,-0.0666,-0.0664,-0.0653,-0.0625,-0.055,-0.0373,-0.0341,-0.0254,-0.0212,-0.0104,-0.0094,0.0133,0.0135,0.0041,-0.005,-0.0007,0,0,0,-0.0719,-0.0705,-0.0656,-0.0594,-0.0552,-0.038,-0.0342,-0.0218,-0.0128,-0.0099,0.0134,0.0135,0.0041,-0.0048,-0.0006,0.0113,0.0116,0,0,-0.0721,-0.0708,-0.0655,-0.0605,-0.0471,-0.0402,-0.026,-0.015,-0.0081,0.0069,0.0075,0.004,-0.005,-0.0007,0.0214,0.0214,0,0,0,-0.0663,-0.0651,-0.0587,-0.0505,-0.0369,-0.0292,-0.0161,-0.0112,-0.0012,-0.0023,0.0103,0.005,0.008,0.0157,0.0158,0.0144,0.0144,0.0143,0.0143,-0.0785,-0.0667,-0.0594,-0.0458,-0.0358,-0.02,-0.0145,-0.0058,0.003,0.0046,0.002,0.0044,0.0128,0.013,0.0106,0.0106,0.0106,0.0106,0.0105,-0.0803,-0.0774,-0.0635,-0.0549,-0.0434,-0.0344,-0.0165,-0.0124,-0.0035,0.0004,0.0042,0.0111,0.0125,0.0099,0.01,0.0101,0.0102,0.0102,0.0103,-0.0915,-0.0896,-0.0833,-0.0743,-0.0674,-0.051,-0.041,-0.0295,-0.0161,-0.0143,0.0041,0.0045,-0.0045,-0.0079,-0.0079,-0.0079,-0.008,-0.008,-0.008,-0.1099,-0.1015,-0.1056,-0.0956,-0.0963,-0.0873,-0.0597,-0.0451,-0.0198,-0.007,-0.0066,-0.0017,-0.0011,-0.0051,-0.0083,-0.0083,-0.0082,-0.0082,-0.0082,-0.1249,-0.1258,-0.1303,-0.1333,-0.1284,-0.1167,-0.0851,-0.0356,-0.019,-0.0023,0.0021,0.002,0.0066,0.007,0.0036,0.0028,0.0028,0.0028,0.0028,-0.1414,-0.1398,-0.1501,-0.1559,-0.1544,-0.1301,-0.0883,-0.0371,0.0003,0.0098,0.0094,0.0152,0.0148,0.0202,0.0203,0.0173,0.0199,0.0199,0.0199,-0.1534,-0.1544,-0.1653,-0.1664,-0.1654,-0.138,-0.0917,-0.0338,0.0087,0.0198,0.0042,0.0055,0.0137,0.0131,0.0214,0.0214,0.0166,0,0]}],[{"header":{"parameterUnit":"m.s-1","parameterCategory":2,"la1":30.2992,"la2":30.254,"lo1":-89.0895,"lo2":-89.0443,"dy":0.0025,"dx":0.0025,"nx":19,"ny":19,"refTime":"2026-05-19T03:00:00:Z","depth":"4","parameterNumber":2,"parameterNumberName":"U-component_of_CURRENTS"},"data":[0,0,0,-0.1083,-0.1085,-0.1133,-0.1133,-0.1147,-0.1147,0,0,0,0,0,0,0,0,0,0,0,-0.1068,-0.1068,-0.1083,-0.1085,-0.1133,-0.1133,-0.1147,-0.1147,0,0,0,0,0,0,0,0,0,0,0,-0.1067,-0.1068,-0.1069,-0.1085,-0.1133,-0.1133,-0.1147,-0.112,0,0,0,0,0,0,0,0,0,0,-0.1078,-0.1062,-0.1068,-0.1069,-0.1086,-0.1133,-0.1133,-0.1119,-0.1122,-0.1115,0,-0.1133,0,-0.1144,-0.1148,-0.1148,0,0,0,-0.1076,-0.106,-0.1087,-0.1069,-0.1086,-0.1133,-0.1109,-0.1121,-0.1124,-0.1118,-0.1133,-0.1134,-0.1144,-0.1148,-0.1148,-0.1217,-0.1217,0,0,-0.1073,-0.1059,-0.1086,-0.1089,-0.1112,-0.1107,-0.111,-0.1123,-0.1122,-0.1133,-0.1135,-0.1144,-0.1148,-0.1148,-0.1216,-0.1217,0,0,0,-0.1072,-0.1057,-0.1084,-0.1088,-0.1103,-0.1109,-0.1112,-0.1121,-0.1135,-0.1135,-0.1144,-0.1148,-0.1148,-0.1215,-0.1216,-0.1285,0,0,0,-0.1069,-0.1057,-0.1083,-0.1073,-0.1103,-0.1116,-0.111,-0.1134,-0.1136,-0.1144,-0.1148,-0.1148,-0.1215,-0.1216,-0.1281,-0.1323,0,0,0,-0.1063,-0.1056,-0.1069,-0.1073,-0.11,-0.1117,-0.113,-0.1135,-0.1142,-0.1148,-0.1148,-0.1214,-0.1216,-0.1278,-0.1317,-0.1406,0,0,0,-0.1036,-0.1057,-0.1069,-0.1082,-0.1099,-0.1147,-0.1131,-0.1152,-0.116,-0.1148,-0.1215,-0.1216,-0.1277,-0.1314,-0.1402,-0.1165,0,0,0,-0.1047,-0.1058,-0.1063,-0.1075,-0.1129,-0.1139,-0.1198,-0.1197,-0.1183,-0.1203,-0.1205,-0.1283,-0.1317,-0.1405,-0.1261,0,0,0,0,-0.1055,-0.1072,-0.1083,-0.1116,-0.115,-0.1219,-0.1227,-0.1237,-0.127,-0.1199,-0.1296,-0.1316,-0.137,-0.1219,-0.1224,-0.1224,-0.1224,-0.1224,-0.1223,-0.1056,-0.1081,-0.1119,-0.1171,-0.1213,-0.1277,-0.1321,-0.1347,-0.1316,-0.1348,-0.1381,-0.1509,-0.1351,-0.1385,-0.1386,-0.1386,-0.1386,-0.1386,-0.1387,-0.1079,-0.1086,-0.1164,-0.1214,-0.1299,-0.1362,-0.1437,-0.144,-0.1521,-0.146,-0.1509,-0.1311,-0.1394,-0.1392,-0.1391,-0.139,-0.139,-0.1389,-0.1389,-0.1037,-0.1054,-0.1116,-0.1228,-0.1337,-0.1421,-0.1518,-0.157,-0.1596,-0.1647,-0.1513,-0.1578,-0.1564,-0.1686,-0.1687,-0.1687,-0.1688,-0.1688,-0.1689,-0.0959,-0.1034,-0.1103,-0.1236,-0.1307,-0.1415,-0.1572,-0.1618,-0.1684,-0.1585,-0.169,-0.1611,-0.1601,-0.1582,-0.1698,-0.1696,-0.1695,-0.1694,-0.1693,-0.0862,-0.0935,-0.1024,-0.1106,-0.1264,-0.1327,-0.1525,-0.1582,-0.1643,-0.1613,-0.1553,-0.1557,-0.1522,-0.1515,-0.1491,-0.1584,-0.1581,-0.1579,0,-0.0786,-0.0835,-0.0948,-0.1043,-0.1118,-0.1254,-0.1287,-0.1382,-0.1449,-0.1384,-0.1617,-0.1545,-0.1546,-0.1499,-0.1489,-0.1456,0,0,0,-0.0725,-0.0783,-0.0817,-0.095,-0.1025,-0.1105,-0.127,-0.1256,-0.1443,-0.1438,-0.1514,-0.1531,-0.1621,-0.1725,-0.1682,-0.167,-0.1638,0,0]},{"header":{"parameterUnit":"m.s-1","parameterCategory":2,"la1":30.2992,"la2":30.254,"lo1":-89.0895,"lo2":-89.0443,"dy":0.0025,"dx":0.0025,"nx":19,"ny":19,"refTime":"2026-05-19T03:00:00:Z","depth":"4","parameterNumber":3,"parameterNumberName":"V-component_of_CURRENTS"},"data":[0,0,0,-0.0119,-0.0119,-0.0067,-0.0067,0.0023,0.0023,0,0,0,0,0,0,0,0,0,0,0,-0.0136,-0.0136,-0.0119,-0.0119,-0.0067,-0.0067,0.0022,0.0023,0,0,0,0,0,0,0,0,0,0,0,-0.0137,-0.0136,-0.0136,-0.0119,-0.0067,-0.0067,0.0022,-0.0019,0,0,0,0,0,0,0,0,0,0,-0.0071,-0.0093,-0.0136,-0.0136,-0.0118,-0.0067,-0.0067,-0.0021,-0.0017,0.0002,0,0.0001,0,0.0008,0.0029,0.0029,0,0,0,-0.0105,-0.0097,-0.0088,-0.0136,-0.0118,-0.0067,-0.0086,-0.0019,-0.0013,0.0008,0.0002,0.0005,0.001,0.0029,0.0029,0.0157,0.0158,0,0,-0.0108,-0.0119,-0.0092,-0.0085,-0.0115,-0.0088,-0.0085,-0.0016,-0.0012,0.0002,0.0007,0.0011,0.003,0.003,0.0157,0.0158,0,0,0,-0.0125,-0.0121,-0.0113,-0.0088,-0.0084,-0.0087,-0.0083,-0.0014,-0.0014,0.0008,0.0012,0.003,0.0031,0.0156,0.0157,0.0143,0,0,0,-0.0126,-0.0132,-0.0115,-0.0119,-0.0086,-0.0052,-0.0084,-0.0018,-0.001,0.0012,0.003,0.0032,0.0155,0.0156,0.0141,0.0113,0,0,0,-0.0137,-0.0133,-0.0131,-0.012,-0.0104,-0.0053,-0.0047,-0.0016,-0.0008,0.0029,0.0032,0.0154,0.0156,0.014,0.0112,0.0099,0,0,0,-0.0142,-0.0155,-0.0132,-0.0137,-0.0105,-0.0065,-0.0047,-0.0018,0.0011,0.003,0.0155,0.0157,0.0139,0.0112,0.0099,-0.0011,0,0,0,-0.0165,-0.0158,-0.016,-0.0139,-0.0114,-0.007,-0.0018,0.0017,0.0054,0.0134,0.0137,0.0142,0.0112,0.0099,0.0106,0,0,0,0,-0.0171,-0.0172,-0.016,-0.0139,-0.01,-0.0042,0.0005,0.0052,0.013,0.0078,0.0186,0.0168,0.0159,0.0098,0.0166,0.0166,0.0166,0.0166,0.0165,-0.0217,-0.019,-0.0186,-0.0143,-0.0105,-0.0015,0.0045,0.0128,0.0148,0.0197,0.0189,0.0213,0.0154,0.024,0.024,0.024,0.024,0.024,0.024,-0.0258,-0.0268,-0.0209,-0.0203,-0.0124,-0.0073,0.0078,0.0125,0.0219,0.024,0.0232,0.013,0.024,0.024,0.024,0.024,0.024,0.024,0.024,-0.0312,-0.0314,-0.0303,-0.0287,-0.0232,-0.0133,-0.0069,0.0069,0.018,0.0204,0.0119,0.0201,0.0161,0.0184,0.0184,0.0184,0.0184,0.0184,0.0184,-0.0387,-0.0369,-0.0409,-0.0377,-0.0388,-0.0333,-0.0163,-0.0086,0.0054,0.0085,0.0176,0.0194,0.0196,0.016,0.0181,0.0182,0.0182,0.0182,0.0182,-0.0456,-0.0466,-0.0533,-0.0563,-0.0573,-0.0526,-0.0373,-0.0195,-0.0135,-0.0069,0.0034,0.0042,0.0027,0.0032,-0.0011,-0.0039,-0.004,-0.0042,0,-0.0521,-0.0523,-0.0637,-0.0711,-0.0743,-0.0635,-0.0558,-0.042,-0.0224,-0.0237,-0.0157,-0.0051,-0.0041,-0.0067,-0.0064,-0.012,0,0,0,-0.0564,-0.06,-0.0698,-0.077,-0.0818,-0.066,-0.0528,-0.0476,-0.0253,-0.0181,-0.0076,-0.0067,0.0032,0.0174,0.017,0.0173,0.0114,0,0]}]]